| time (UTC) | temp C | wind direction | speed KPH | gust KPH | rain 1hr cm | rain 24hr cm | rain mn cm | humidity % | barometer mb |
| 20260504002645 | 11 | 52 | 0.0 | 0.0 | 0.00 | 0.00 | 0.00 | 86 | 1019.7 |
| 20260504001633 | 11 | 73 | 0.0 | 0.0 | 0.00 | 0.00 | 0.00 | 85 | 1019.7 |
| 20260504000625 | 11 | 73 | 0.0 | 0.0 | 0.00 | 0.00 | 0.00 | 85 | 1019.7 |
| 20260503235623 | 11 | 73 | 0.0 | 0.0 | 0.00 | 0.00 | 0.00 | 85 | 1019.7 |
| 20260503234606 | 11 | 73 | 0.0 | 0.0 | 0.00 | 0.00 | 0.00 | 85 | 1019.7 |
| 20260503233602 | 11 | 73 | 0.0 | 0.0 | 0.00 | 0.00 | 0.00 | 84 | 1019.7 |
| 20260503232526 | 11 | 73 | 0.0 | 0.0 | 0.00 | 0.00 | 0.00 | 83 | 1019.7 |
| 20260503231523 | 12 | 73 | 0.0 | 0.0 | 0.00 | 0.00 | 0.00 | 83 | 1019.7 |
| 20260503230519 | 12 | 73 | 0.0 | 0.0 | 0.00 | 0.00 | 0.00 | 83 | 1019.7 |
| 20260503225503 | 12 | 73 | 0.0 | 0.0 | 0.00 | 0.00 | 0.00 | 82 | 1019.7 |
| 20260503224437 | 12 | 73 | 0.0 | 0.0 | 0.00 | 0.00 | 0.00 | 81 | 1020.7 |
| 20260503223423 | 12 | 73 | 0.0 | 0.0 | 0.00 | 0.00 | 0.00 | 81 | 1020.7 |
| 20260503222407 | 13 | 73 | 0.0 | 0.0 | 0.00 | 0.00 | 0.00 | 82 | 1020.7 |
| 20260503220346 | 13 | 73 | 0.0 | 0.0 | 0.00 | 0.00 | 0.00 | 78 | 1019.7 |
| 20260503215329 | 13 | 46 | 0.0 | 0.0 | 0.00 | 0.00 | 0.00 | 78 | 1019.7 |
| 20260503213309 | 13 | 75 | 0.0 | 0.0 | 0.00 | 0.00 | 0.00 | 76 | 1019.7 |
| 20260503212234 | 13 | 70 | 0.0 | 0.0 | 0.00 | 0.00 | 0.00 | 75 | 1019.7 |
| 20260503210203 | 13 | 137 | 0.0 | 0.0 | 0.00 | 0.00 | 0.00 | 74 | 1019.7 |
| 20260503203120 | 14 | 137 | 3.2 | 8.0 | 0.00 | 0.00 | 0.00 | 74 | 1019.7 |
| 20260503195059 | 15 | 151 | 0.0 | 4.8 | 0.00 | 0.00 | 0.00 | 72 | 1018.7 |
| 20260503194043 | 15 | 164 | 0.0 | 6.4 | 0.00 | 0.00 | 0.00 | 72 | 1018.7 |
| 20260503193038 | 15 | 164 | 0.0 | 3.2 | 0.00 | 0.00 | 0.00 | 71 | 1018.7 |
| 20260503192028 | 16 | 162 | 3.2 | 6.4 | 0.00 | 0.00 | 0.00 | 70 | 1018.7 |
| 20260503191024 | 16 | 167 | 0.0 | 9.7 | 0.00 | 0.00 | 0.00 | 69 | 1018.7 |
| 20260503190003 | 16 | 166 | 1.6 | 9.7 | 0.00 | 0.00 | 0.00 | 68 | 1018.7 |
| 20260503184947 | 17 | 176 | 3.2 | 12.9 | 0.00 | 0.00 | 0.00 | 67 | 1018.7 |
| 20260503182939 | 17 | 218 | 4.8 | 14.5 | 0.00 | 0.00 | 0.00 | 63 | 1017.7 |
| 20260503180920 | 18 | 218 | 6.4 | 16.1 | 0.00 | 0.00 | 0.00 | 60 | 1017.7 |
| 20260503175913 | 19 | 209 | 6.4 | 12.9 | 0.00 | 0.00 | 0.00 | 59 | 1017.7 |
| 20260503174906 | 19 | 181 | 6.4 | 12.9 | 0.00 | 0.00 | 0.00 | 56 | 1017.7 |
| 20260503172847 | 20 | 200 | 3.2 | 11.3 | 0.00 | 0.00 | 0.00 | 53 | 1017.7 |
| 20260503171843 | 21 | 0 | 0.0 | 11.3 | 0.00 | 0.00 | 0.00 | 52 | 1017.7 |
| 20260503170838 | 21 | 227 | 3.2 | 11.3 | 0.00 | 0.00 | 0.00 | 52 | 1017.7 |
| 20260503130550 | 22 | 250 | 14.5 | 20.9 | 0.00 | 0.00 | 0.00 | 48 | 1018.7 |
| 20260503110411 | 22 | 335 | 0.0 | 12.9 | 0.00 | 0.00 | 0.00 | 49 | 1019.7 |
| 20260503090223 | 18 | 132 | 0.0 | 4.8 | 0.00 | 0.00 | 0.00 | 56 | 1020.7 |
| 20260503081156 | 18 | 84 | 0.0 | 1.6 | 0.00 | 0.00 | 0.00 | 61 | 1021.7 |
| 20260503080140 | 17 | 88 | 0.0 | 0.0 | 0.00 | 0.00 | 0.00 | 62 | 1021.7 |
| 20260503072108 | 15 | 120 | 0.0 | 3.2 | 0.00 | 0.00 | 0.00 | 64 | 1021.7 |
| 20260503071051 | 15 | 88 | 0.0 | 1.6 | 0.00 | 0.00 | 0.00 | 64 | 1021.7 |
| 20260503054910 | 10 | 279 | 0.0 | 0.0 | 0.00 | 0.00 | 0.00 | 78 | 1021.7 |
| 20260503053902 | 8 | 0 | 0.0 | 3.2 | 0.00 | 0.00 | 0.00 | 82 | 1021.7 |
| 20260503052855 | 8 | 292 | 1.6 | 3.2 | 0.00 | 0.00 | 0.00 | 83 | 1021.7 |
| 20260503051842 | 7 | 253 | 0.0 | 3.2 | 0.00 | 0.00 | 0.00 | 84 | 1021.7 |
| 20260503044810 | 6 | 298 | 0.0 | 3.2 | 0.00 | 0.00 | 0.00 | 87 | 1021.7 |
| 20260503043750 | 6 | 288 | 0.0 | 0.0 | 0.00 | 0.00 | 0.00 | 87 | 1021.7 |
| 20260503042735 | 6 | 162 | 0.0 | 0.0 | 0.00 | 0.00 | 0.00 | 88 | 1021.7 |
| 20260503041728 | 6 | 162 | 0.0 | 0.0 | 0.00 | 0.00 | 0.00 | 88 | 1021.7 |
| 20260503040712 | 6 | 162 | 0.0 | 0.0 | 0.00 | 0.00 | 0.00 | 88 | 1021.7 |
| 20260503035658 | 6 | 162 | 0.0 | 1.6 | 0.00 | 0.00 | 0.00 | 87 | 1021.7 |
| 20260503034629 | 6 | 179 | 0.0 | 1.6 | 0.00 | 0.00 | 0.00 | 86 | 1021.7 |
| 20260503033621 | 7 | 266 | 1.6 | 3.2 | 0.00 | 0.00 | 0.00 | 86 | 1021.7 |
| 20260503032618 | 7 | 250 | 0.0 | 0.0 | 0.00 | 0.00 | 0.00 | 86 | 1020.7 |
| 20260503030554 | 7 | 231 | 0.0 | 0.0 | 0.00 | 0.00 | 0.00 | 86 | 1021.7 |
| 20260503025529 | 7 | 179 | 0.0 | 0.0 | 0.00 | 0.00 | 0.00 | 87 | 1020.7 |
| 20260503023457 | 7 | 179 | 0.0 | 0.0 | 0.00 | 0.00 | 0.00 | 86 | 1021.7 |
| 20260503021407 | 7 | 179 | 0.0 | 0.0 | 0.00 | 0.00 | 0.00 | 85 | 1021.7 |
| 20260503020349 | 7 | 179 | 0.0 | 0.0 | 0.00 | 0.00 | 0.00 | 85 | 1021.7 |
| 20260503015343 | 7 | 179 | 0.0 | 0.0 | 0.00 | 0.00 | 0.00 | 85 | 1021.7 |
| 20260503014330 | 7 | 179 | 0.0 | 0.0 | 0.00 | 0.00 | 0.00 | 85 | 1021.7 |
| 20260503013311 | 7 | 179 | 0.0 | 0.0 | 0.00 | 0.00 | 0.00 | 84 | 1021.7 |
| 20260503012305 | 7 | 179 | 0.0 | 0.0 | 0.00 | 0.00 | 0.00 | 83 | 1021.7 |
| 20260503011259 | 7 | 179 | 0.0 | 0.0 | 0.00 | 0.00 | 0.00 | 84 | 1021.7 |
| 20260503010253 | 8 | 179 | 0.0 | 0.0 | 0.00 | 0.00 | 0.00 | 83 | 1021.7 |
| 20260503005253 | 8 | 252 | 0.0 | 0.0 | 0.00 | 0.00 | 0.00 | 81 | 1021.7 |
| 20260503004226 | 8 | 252 | 0.0 | 0.0 | 0.00 | 0.00 | 0.00 | 81 | 1021.7 |